DW4326 Weather Reports


time (UTC)temp
C
wind
direction
speed
KPH
gust
KPH
rain 1hr
cm
rain 24hr
cm
rain mn
cm
humidity
%
barometer
mb
20260902233315 17 219 0.0 8.0 0.00 0.10 0.00 91 1017.2
20260902231815 17 219 0.0 9.7 0.00 0.10 0.00 92 1017.3
20260902230317 17 196 1.6 11.3 0.00 0.10 0.00 92 1017.7
20260902224815 17 190 0.0 8.0 0.00 0.10 0.00 93 1018.5
20260902223315 17 190 0.0 0.0 0.00 0.10 0.00 92 1018.9
20260902221813 17 190 0.0 0.0 0.00 0.10 0.00 92 1019.2
20260902220309 18 190 0.0 4.8 0.00 0.10 0.00 92 1019.2
20260902214810 18 190 1.6 6.4 0.00 0.10 0.00 90 1019.4
20260902213306 18 187 0.0 6.4 0.00 0.10 0.00 90 1019.2
20260902212459 18 190 0.0 6.4 0.00 0.10 0.00 90 1019.1
20260902211007 18 188 0.0 8.0 0.00 0.10 0.00 87 1019.2
20260902204803 18 190 1.6 8.0 0.00 0.10 0.00 86 1019.2
20260902203302 18 198 0.0 9.7 0.00 0.10 0.00 85 1019.5
20260902203204 18 196 0.0 12.9 0.00 0.10 0.00 86 1019.3
20260902200301 18 188 0.0 6.4 0.00 0.10 0.00 86 1019.4
20260902194757 18 197 0.0 16.1 0.00 0.10 0.00 86 1019.7
20260902193949 18 197 0.0 11.3 0.00 0.10 0.00 86 1019.7
20260902191752 18 191 0.0 8.0 0.00 0.10 0.00 86 1019.8
20260902190252 18 210 0.0 12.9 0.00 0.13 0.00 85 1019.9
20260902184752 18 200 1.6 14.5 0.00 0.13 0.00 84 1019.9
20260902183253 18 192 1.6 11.3 0.00 0.13 0.00 85 1020.1
20260902181746 18 180 1.6 14.5 0.00 0.13 0.00 85 1020.4
20260902180248 18 218 3.2 19.3 0.00 0.13 0.00 84 1020.4
20260902175436 18 201 1.6 16.1 0.00 0.13 0.00 83 1020.2
20260902173247 18 195 4.8 16.1 0.00 0.13 0.00 82 1020.0
20260902171747 18 184 3.2 17.7 0.00 0.13 0.00 82 1020.1
20260902170246 18 219 4.8 16.1 0.00 0.13 0.00 82 1020.2
20260902164747 18 194 3.2 11.3 0.00 0.13 0.00 82 1020.4
20260902163246 18 196 3.2 12.9 0.00 0.13 0.00 82 1020.5
20260902161746 18 178 0.0 0.0 0.00 0.13 0.00 82 1020.6
20260902160244 18 199 0.0 0.0 0.00 0.13 0.00 81 1020.6
20260902154744 18 196 0.0 0.0 0.00 0.13 0.00 84 1020.8
20260902153244 17 206 0.0 0.0 0.00 0.13 0.00 82 1020.9
20260902151745 17 213 0.0 0.0 0.00 0.13 0.00 82 1021.2
20260902150244 17 193 0.0 0.0 0.00 0.13 0.00 83 1021.2
20260902144741 17 195 0.0 0.0 0.00 0.13 0.00 87 1021.1
20260902143241 17 190 0.0 0.0 0.00 0.13 0.00 87 1021.0
20260902141738 17 189 0.0 0.0 0.00 0.13 0.00 88 1020.9
20260902140933 17 153 0.0 0.0 0.00 0.13 0.00 90 1020.8
20260902134735 17 184 0.0 0.0 0.00 0.15 0.00 91 1020.8
20260902133233 16 201 0.0 0.0 0.00 0.15 0.00 91 1020.7
20260902131732 16 183 0.0 0.0 0.00 0.18 0.00 92 1020.4
20260902130230 16 205 0.0 0.0 0.00 0.18 0.00 94 1020.4
20260902124724 16 166 0.0 0.0 0.00 0.20 0.00 95 1020.6
20260902123223 15 192 0.0 0.0 0.00 0.20 0.00 96 1020.6
20260902122419 15 198 0.0 0.0 0.00 0.28 0.00 97 1020.6
20260902121621 15 215 0.0 0.0 0.00 0.36 0.00 98 1020.6
20260902114723 15 182 0.0 0.0 0.00 0.46 0.00 98 1020.6
20260902111722 15 196 0.0 0.0 0.00 0.66 0.00 98 1020.8
20260902110224 15 196 0.0 1.6 0.00 0.74 0.00 98 1020.8
20260902104722 15 196 0.0 0.0 0.00 0.81 0.00 98 1020.8
20260902103221 15 196 0.0 0.0 0.00 0.86 0.00 98 1020.6
20260902101719 15 196 0.0 0.0 0.00 0.91 0.00 98 1020.6
20260902100222 15 196 0.0 0.0 0.00 0.94 0.00 98 1020.3
20260902094720 15 196 0.0 0.0 0.00 0.94 0.00 98 1020.4
20260902093219 15 196 0.0 0.0 0.00 0.94 0.00 98 1020.2
20260902091719 15 196 0.0 0.0 0.00 0.94 0.00 98 1020.1
20260902090220 15 196 0.0 0.0 0.00 0.94 0.00 98 1020.0
20260902084718 15 195 0.0 0.0 0.00 0.94 0.00 98 1020.0
20260902083219 15 201 0.0 0.0 0.00 0.94 0.00 98 1020.1
20260902081718 15 201 0.0 1.6 0.00 0.94 0.00 98 1020.0
20260902080216 15 200 0.0 0.0 0.00 0.94 0.00 98 1020.1
20260902074718 15 196 0.0 0.0 0.00 0.94 0.00 98 1020.0
20260902073913 15 197 0.0 0.0 0.00 0.94 0.00 98 1020.2
20260902071717 15 197 0.0 0.0 0.00 0.94 0.00 98 1020.1
20260902070215 15 196 0.0 0.0 0.00 0.94 0.00 98 1020.0
20260902064714 16 197 0.0 0.0 0.00 0.94 0.00 97 1020.1
20260902063216 16 196 0.0 0.0 0.00 0.94 0.00 98 1020.2
20260902061715 16 196 0.0 0.0 0.00 0.94 0.00 98 1019.9
20260902060214 16 203 0.0 0.0 0.00 0.94 0.00 98 1019.6
20260902055418 16 203 0.0 0.0 0.00 0.94 0.00 98 1019.7
20260902053210 16 203 0.0 0.0 0.00 0.94 0.00 98 1019.6
20260902051711 16 197 0.0 0.0 0.00 0.94 0.00 98 1019.5
20260902050210 16 197 0.0 0.0 0.00 0.94 0.00 98 1019.4
20260902044708 16 197 0.0 0.0 0.00 0.94 0.00 98 1019.3
20260902043208 16 197 0.0 0.0 0.00 0.94 0.00 97 1019.2
20260902041706 16 197 0.0 0.0 0.00 0.94 0.00 97 1019.1
20260902040205 16 197 0.0 0.0 0.03 0.94 0.00 97 1019.0
20260902035353 16 189 0.0 3.2 0.03 0.94 0.94 97 1018.9
20260902033204 16 198 1.6 8.0 0.03 0.94 0.94 97 1018.7
20260902031701 16 198 0.0 0.0 0.03 0.94 0.94 98 1018.7
20260902030203 16 202 0.0 0.0 0.00 0.91 0.91 97 1018.8
20260902024701 16 202 0.0 0.0 0.00 0.91 0.91 97 1018.8
20260902023857 16 202 0.0 0.0 0.00 0.91 0.91 97 1018.7
20260902021702 16 202 0.0 4.8 0.00 0.91 0.91 97 1018.6
20260902020859 16 202 0.0 4.8 0.03 0.91 0.91 97 1018.6
20260902014659 16 197 0.0 6.4 0.05 0.91 0.91 97 1018.3
20260902013159 17 192 0.0 0.0 0.05 0.91 0.91 97 1018.4
20260902011658 17 190 0.0 0.0 0.08 0.91 0.91 97 1018.4
20260902010851 17 232 0.0 0.0 0.05 0.89 0.89 97 1018.4
20260902004659 17 232 0.0 0.0 0.03 0.86 0.86 97 1018.5
20260902003157 17 232 0.0 0.0 0.03 0.86 0.86 96 1018.4
20260902001653 17 232 0.0 0.0 0.00 0.84 0.84 97 1018.3
20260902001602 17 232 0.0 0.0 0.00 0.84 0.84 96 1018.1